FW6381 Weather Reports


Display with metric or nautical units.
time (UTC)temp
F
wind
direction
speed
MPH
gust
MPH
rain 1hr
in
rain 24hr
in
rain mn
in
humidity
%
barometer
mb
20260508172003 53 231 3.0 9.0 0.00 0.18 0.13 58 1012.0
20260508171503 53 239 2.0 9.0 0.00 0.18 0.13 60 1012.0
20260508171004 53 241 4.0 10.0 0.00 0.18 0.13 62 1012.0
20260508170503 53 245 5.0 13.0 0.00 0.18 0.13 60 1012.1
20260508170213 53 252 5.0 13.0 0.00 0.18 0.13 63 1012.0
20260508165503 53 255 4.0 13.0 0.00 0.18 0.13 65 1012.1
20260508165005 52 244 4.0 13.0 0.00 0.18 0.13 63 1012.1
20260508164712 52 246 5.0 13.0 0.00 0.18 0.13 60 1012.1
20260508164003 52 282 4.0 12.0 0.00 0.18 0.13 64 1012.2
20260508163503 52 316 4.0 17.0 0.00 0.18 0.13 63 1012.3
20260508163005 52 318 4.0 17.0 0.00 0.18 0.13 60 1012.4
20260508162503 52 301 4.0 10.0 0.00 0.18 0.13 65 1012.3
20260508162003 52 293 5.0 13.0 0.00 0.18 0.13 67 1012.3
20260508161503 51 317 6.0 13.0 0.00 0.18 0.13 67 1012.5
20260508161003 51 327 4.0 12.0 0.00 0.18 0.13 65 1012.5
20260508160504 51 311 4.0 13.0 0.00 0.18 0.13 67 1012.5
20260508160003 51 310 5.0 13.0 0.00 0.18 0.13 69 1012.5
20260508155714 51 316 5.0 13.0 0.00 0.18 0.13 68 1012.5
20260508155003 50 331 6.0 17.0 0.00 0.18 0.13 70 1012.6
20260508154503 50 333 7.0 17.0 0.00 0.18 0.13 70 1012.5
20260508154003 50 319 5.0 15.0 0.00 0.18 0.13 72 1012.6
20260508153505 49 287 4.0 12.0 0.00 0.18 0.13 74 1012.8
20260508153005 49 271 5.0 13.0 0.00 0.18 0.13 75 1012.7
20260508152503 49 254 6.0 13.0 0.00 0.18 0.13 77 1012.7
20260508152005 48 261 5.0 13.0 0.00 0.18 0.13 78 1012.9
20260508151505 48 286 4.0 10.0 0.00 0.18 0.13 81 1012.9
20260508151003 48 256 4.0 9.0 0.00 0.18 0.13 82 1012.9
20260508150713 47 241 3.0 9.0 0.00 0.18 0.13 82 1012.9
20260508150003 47 231 4.0 9.0 0.00 0.18 0.13 83 1012.9
20260508145503 47 234 4.0 9.0 0.00 0.18 0.13 83 1012.8
20260508145003 47 238 3.0 6.0 0.00 0.18 0.13 84 1012.8
20260508144715 46 241 4.0 6.0 0.00 0.18 0.13 84 1012.9
20260508144003 46 274 4.0 10.0 0.00 0.18 0.13 87 1012.8
20260508143504 46 261 4.0 9.0 0.00 0.18 0.13 87 1012.9
20260508143006 46 224 4.0 9.0 0.00 0.18 0.13 88 1012.8
20260508142503 45 221 3.0 9.0 0.00 0.18 0.13 89 1012.8
20260508142003 45 226 3.0 9.0 0.00 0.18 0.13 91 1012.8
20260508141505 44 234 3.0 9.0 0.00 0.18 0.13 91 1012.7
20260508141004 44 221 3.0 8.0 0.00 0.18 0.13 92 1012.6
20260508140503 44 186 2.0 8.0 0.00 0.18 0.13 92 1012.8
20260508140003 44 140 2.0 5.0 0.00 0.18 0.13 93 1012.8
20260508135503 43 106 2.0 5.0 0.00 0.18 0.13 93 1012.9
20260508135214 43 102 1.0 5.0 0.00 0.18 0.13 94 1012.8
20260508134508 42 98 1.0 4.0 0.00 0.18 0.13 94 1012.9
20260508134214 42 98 1.0 4.0 0.01 0.18 0.13 94 1012.9
20260508133503 42 98 2.0 4.0 0.01 0.18 0.13 94 1012.9
20260508133003 42 94 2.0 8.0 0.01 0.18 0.13 95 1012.8
20260508132503 42 91 3.0 8.0 0.01 0.18 0.13 95 1012.7
20260508132003 42 89 2.0 5.0 0.01 0.18 0.13 95 1012.7
20260508131505 41 88 2.0 5.0 0.01 0.18 0.13 95 1012.8
20260508131005 41 87 2.0 5.0 0.01 0.18 0.13 95 1012.7
20260508130503 41 85 2.0 8.0 0.01 0.18 0.13 95 1012.7
20260508130004 41 82 3.0 8.0 0.01 0.18 0.13 95 1012.7
20260508125503 40 37 3.0 8.0 0.01 0.18 0.13 94 1012.6
20260508125005 40 337 2.0 5.0 0.01 0.18 0.13 94 1012.6
20260508124503 40 323 1.0 4.0 0.01 0.18 0.13 94 1012.6
20260508124003 40 323 1.0 4.0 0.01 0.17 0.11 94 1012.7
20260508123715 40 323 1.0 4.0 0.01 0.17 0.11 94 1012.6
20260508123003 40 323 0.0 3.0 0.02 0.17 0.11 94 1012.5
20260508122503 40 0 0.0 0.0 0.02 0.17 0.11 94 1012.7
20260508122003 40 0 0.0 0.0 0.03 0.17 0.11 94 1012.7
20260508121505 40 323 0.0 1.0 0.05 0.17 0.11 94 1012.7
20260508121003 40 323 0.0 3.0 0.06 0.17 0.11 94 1012.6
20260508120503 40 323 1.0 3.0 0.07 0.17 0.11 94 1012.6
20260508120004 40 323 1.0 4.0 0.08 0.17 0.11 93 1012.6
20260508115503 40 322 2.0 6.0 0.08 0.17 0.11 93 1012.5
20260508115003 40 321 3.0 10.0 0.08 0.17 0.11 93 1012.6
20260508114503 40 322 4.0 13.0 0.08 0.17 0.11 93 1012.7
20260508114003 40 326 5.0 13.0 0.07 0.16 0.10 93 1012.6
20260508113503 40 317 4.0 12.0 0.07 0.16 0.10 93 1012.7
20260508113004 40 309 6.0 15.0 0.06 0.15 0.09 93 1012.8
20260508112503 41 316 6.0 15.0 0.06 0.15 0.09 93 1012.6
20260508112003 41 315 4.0 15.0 0.05 0.14 0.08 93 1012.5
20260508111503 42 289 3.0 9.0 0.03 0.13 0.07 93 1012.5
20260508111003 42 269 2.0 9.0 0.02 0.12 0.06 92 1012.3
20260508110714 42 266 1.0 4.0 0.01 0.10 0.05 92 1012.2
20260508110213 42 265 1.0 4.0 0.01 0.09 0.03 92 1012.2
20260508105714 41 265 1.0 4.0 0.02 0.09 0.03 92 1011.9
20260508105003 41 265 1.0 3.0 0.02 0.09 0.03 92 1011.8
20260508104714 41 265 0.0 3.0 0.02 0.09 0.03 92 1011.6
20260508104003 41 265 1.0 5.0 0.02 0.09 0.03 91 1011.6
20260508103716 42 265 1.0 5.0 0.02 0.09 0.03 91 1011.6
20260508103213 42 263 2.0 8.0 0.02 0.09 0.03 91 1011.6
20260508102505 42 262 3.0 8.0 0.02 0.09 0.03 91 1011.8
20260508102003 42 263 4.0 12.0 0.02 0.09 0.03 92 1011.5
20260508101504 42 252 5.0 12.0 0.02 0.09 0.03 92 1011.5
20260508101003 42 238 4.0 12.0 0.02 0.09 0.03 92 1011.5
20260508100503 42 234 2.0 12.0 0.01 0.08 0.02 93 1011.4
20260508100003 42 238 0.0 3.0 0.01 0.08 0.02 93 1011.4
20260508095714 42 0 0.0 0.0 0.00 0.07 0.01 93 1011.4
20260508095003 43 0 0.0 0.0 0.00 0.07 0.01 93 1011.4
20260508094714 43 0 0.0 0.0 0.00 0.07 0.01 93 1011.4
20260508094003 42 238 0.0 1.0 0.00 0.07 0.01 93 1011.2
20260508093503 42 238 1.0 3.0 0.00 0.07 0.01 93 1011.2
20260508093003 43 238 0.0 3.0 0.00 0.07 0.01 93 1011.1
20260508092503 43 238 1.0 3.0 0.00 0.07 0.01 93 1011.4
20260508092005 43 238 2.0 4.0 0.00 0.07 0.01 94 1011.5
20260508091503 43 238 1.0 4.0 0.00 0.07 0.01 94 1011.4
20260508091005 43 238 0.0 4.0 0.00 0.07 0.01 94 1011.3
20260508090503 43 237 1.0 6.0 0.00 0.07 0.01 94 1011.2
20260508090003 43 236 2.0 6.0 0.00 0.07 0.01 94 1011.2
20260508085503 43 230 2.0 6.0 0.00 0.07 0.01 94 1011.4
20260508085004 43 228 2.0 6.0 0.00 0.07 0.01 95 1011.6
20260508084504 43 223 2.0 6.0 0.00 0.07 0.01 95 1011.5
20260508084214 43 222 2.0 6.0 0.00 0.07 0.01 95 1011.4
20260508083505 43 228 4.0 13.0 0.00 0.07 0.01 95 1011.6
20260508083003 43 229 5.0 14.0 0.00 0.07 0.01 95 1011.7
20260508082503 43 222 5.0 13.0 0.00 0.07 0.01 96 1011.7
20260508082003 43 222 5.0 10.0 0.00 0.07 0.01 96 1011.8
20260508081503 43 229 5.0 12.0 0.00 0.07 0.01 96 1011.8
20260508081003 43 229 5.0 12.0 0.00 0.07 0.01 96 1011.7
20260508080504 43 225 4.0 12.0 0.00 0.07 0.01 96 1011.6
20260508080214 43 220 4.0 9.0 0.00 0.07 0.01 96 1011.6
20260508075503 42 205 3.0 8.0 0.00 0.07 0.01 96 1011.6
20260508075214 42 206 3.0 8.0 0.00 0.07 0.01 96 1011.6
20260508074504 42 207 3.0 8.0 0.00 0.07 0.01 96 1011.6
20260508074005 42 205 2.0 8.0 0.00 0.07 0.01 96 1011.6
20260508073503 42 203 2.0 6.0 0.00 0.07 0.01 96 1011.7
20260508073214 42 202 3.0 5.0 0.00 0.07 0.01 96 1011.6
20260508072503 42 194 2.0 8.0 0.00 0.07 0.01 96 1011.7
20260508072004 42 189 2.0 5.0 0.00 0.07 0.01 96 1011.7
20260508071503 42 188 1.0 5.0 0.00 0.07 0.01 96 1011.5
20260508071004 42 188 2.0 5.0 0.00 0.07 0.01 96 1011.6
20260508070713 42 188 2.0 5.0 0.00 0.07 0.01 96 1011.6
20260508070004 42 187 2.0 5.0 0.00 0.07 0.01 96 1011.7
20260508065505 42 186 3.0 5.0 0.00 0.07 0.01 96 1011.7
20260508065006 42 163 3.0 6.0 0.00 0.07 0.01 96 1011.8
20260508064503 41 122 3.0 6.0 0.00 0.07 0.01 96 1011.8
20260508064215 41 109 3.0 5.0 0.00 0.07 0.01 96 1011.8
20260508063505 41 99 2.0 5.0 0.00 0.07 0.01 95 1011.8
20260508063213 41 96 2.0 5.0 0.00 0.07 0.01 95 1011.8
20260508062503 41 85 2.0 5.0 0.00 0.07 0.01 95 1011.8
20260508062003 40 79 2.0 4.0 0.00 0.07 0.01 95 1011.8
20260508061503 40 76 1.0 4.0 0.01 0.07 0.01 95 1011.8
20260508061003 40 75 1.0 4.0 0.01 0.07 0.01 95 1011.9
20260508060505 40 73 1.0 4.0 0.01 0.07 0.01 95 1011.9
20260508060005 40 73 1.0 4.0 0.01 0.07 0.01 95 1011.9
20260508055504 40 72 1.0 4.0 0.01 0.07 0.01 95 1011.9
20260508055003 40 72 1.0 3.0 0.01 0.07 0.01 95 1011.6
20260508054503 40 72 0.0 3.0 0.01 0.07 0.01 95 1011.9
20260508054003 39 72 1.0 3.0 0.01 0.07 0.01 95 1012.0
20260508053503 39 70 2.0 5.0 0.01 0.07 0.01 95 1012.1
20260508053213 39 60 2.0 5.0 0.01 0.07 0.01 95 1012.1
20260508052504 39 8 1.0 5.0 0.01 0.07 0.01 94 1011.8
20260508052213 38 347 0.0 5.0 0.01 0.07 0.01 94 1012.0
20260508051503 38 0 0.0 0.0 0.00 0.06 0.00 94 1012.1
20260508051006 38 0 0.0 0.0 0.00 0.06 0.00 94 1012.0
20260508050503 38 0 0.0 0.0 0.00 0.06 0.00 94 1012.0
20260508050003 39 0 0.0 0.0 0.00 0.06 0.00 93 1012.1
20260508045505 39 0 0.0 0.0 0.00 0.06 0.00 94 1012.3
20260508045003 39 0 0.0 0.0 0.00 0.06 0.00 93 1012.3
20260508044505 39 0 0.0 0.0 0.00 0.06 0.00 93 1012.3
20260508044212 39 0 0.0 0.0 0.00 0.06 0.00 93 1012.3
20260508043503 39 0 0.0 0.0 0.00 0.06 0.00 93 1012.2
20260508043006 39 0 0.0 0.0 0.00 0.06 0.00 93 1012.3
20260508042503 40 0 0.0 0.0 0.00 0.06 0.00 93 1012.2
20260508042003 40 0 0.0 0.0 0.00 0.06 0.00 93 1012.2
20260508041505 40 0 0.0 0.0 0.00 0.06 0.00 93 1012.3
20260508041003 40 0 0.0 0.0 0.00 0.06 0.00 93 1012.2
20260508040503 40 0 0.0 0.0 0.00 0.06 0.00 93 1012.2
20260508040004 40 0 0.0 0.0 0.00 0.06 0.00 93 1012.2
20260508035505 40 346 0.0 3.0 0.00 0.06 0.06 93 1012.2
20260508035003 40 346 1.0 4.0 0.00 0.06 0.06 93 1012.2
20260508034503 40 346 1.0 4.0 0.00 0.06 0.06 93 1012.3
20260508034003 41 346 0.0 1.0 0.00 0.06 0.06 93 1012.3
20260508033713 41 0 0.0 0.0 0.00 0.06 0.06 93 1012.3
20260508033003 41 0 0.0 0.0 0.00 0.06 0.06 93 1012.3
20260508032503 41 0 0.0 0.0 0.00 0.06 0.06 92 1012.3
20260508032003 41 0 0.0 0.0 0.00 0.06 0.06 92 1012.4
20260508031503 42 0 0.0 0.0 0.00 0.06 0.06 92 1012.2
20260508031005 42 0 0.0 0.0 0.00 0.06 0.06 92 1012.2
20260508030503 42 0 0.0 0.0 0.00 0.06 0.06 92 1012.1
20260508030003 42 0 0.0 0.0 0.00 0.06 0.06 92 1012.1
20260508025503 42 0 0.0 0.0 0.00 0.06 0.06 92 1012.1
20260508025003 42 0 0.0 0.0 0.01 0.06 0.06 92 1012.0
20260508024503 42 0 0.0 0.0 0.02 0.06 0.06 92 1012.0
20260508024003 43 0 0.0 0.0 0.02 0.06 0.06 92 1012.1
20260508023503 42 346 0.0 1.0 0.02 0.06 0.06 92 1012.0
20260508023003 42 346 0.0 1.0 0.02 0.06 0.06 92 1012.0
20260508022503 42 346 1.0 5.0 0.02 0.06 0.06 92 1012.0
20260508022003 43 346 3.0 10.0 0.03 0.06 0.06 92 1011.9
20260508021715 43 347 4.0 10.0 0.05 0.06 0.06 92 1011.9
20260508021005 43 340 4.0 10.0 0.05 0.06 0.06 91 1011.9
20260508020503 43 331 4.0 10.0 0.06 0.06 0.06 91 1012.0
20260508020003 43 323 4.0 10.0 0.06 0.06 0.06 91 1012.1
20260508015715 43 320 3.0 10.0 0.06 0.06 0.06 91 1012.1
20260508015003 43 322 3.0 8.0 0.05 0.05 0.05 90 1012.1
20260508014503 43 325 3.0 10.0 0.03 0.03 0.03 90 1012.2
20260508014005 43 328 3.0 10.0 0.03 0.03 0.03 89 1012.1
20260508013503 43 327 3.0 10.0 0.03 0.03 0.03 89 1012.1
20260508013005 43 311 4.0 13.0 0.03 0.03 0.03 88 1011.9
20260508012505 44 299 5.0 13.0 0.03 0.03 0.03 87 1012.0
20260508012213 44 301 5.0 17.0 0.02 0.02 0.02 87 1012.0
20260508011503 44 296 9.0 18.0 0.01 0.01 0.01 86 1012.0
20260508011213 44 293 8.0 20.0 0.01 0.01 0.01 84 1011.9
20260508010503 45 309 4.0 20.0 0.00 0.00 0.00 83 1011.8
20260508010003 45 324 2.0 5.0 0.00 0.00 0.00 82 1011.8
20260508005503 45 324 2.0 5.0 0.00 0.00 0.00 81 1011.5
20260508005003 45 324 1.0 4.0 0.00 0.00 0.00 81 1011.5
20260508004503 45 324 1.0 4.0 0.00 0.00 0.00 80 1011.2
20260508004213 45 324 0.0 3.0 0.00 0.00 0.00 80 1011.2
20260508003503 45 324 1.0 4.0 0.00 0.00 0.00 79 1011.0
20260508003004 45 322 2.0 6.0 0.00 0.00 0.00 79 1011.1
20260508002503 45 315 3.0 6.0 0.00 0.00 0.00 79 1011.1
20260508002003 45 324 4.0 13.0 0.00 0.00 0.00 78 1011.1
20260508001503 45 328 7.0 15.0 0.00 0.00 0.00 78 1011.2
20260508001003 46 322 9.0 23.0 0.00 0.00 0.00 77 1011.2
20260508000503 46 318 10.0 23.0 0.00 0.00 0.00 76 1011.2
20260508000003 47 314 11.0 24.0 0.00 0.00 0.00 74 1011.2
20260507235714 47 304 12.0 24.0 0.00 0.00 0.00 72 1011.2
20260507235003 48 286 12.0 24.0 0.00 0.00 0.00 69 1011.0
20260507234503 50 260 9.0 24.0 0.00 0.00 0.00 64 1011.0
20260507234005 50 242 7.0 14.0 0.00 0.00 0.00 58 1010.7
20260507233714 50 240 7.0 14.0 0.00 0.00 0.00 59 1010.7
20260507233003 50 232 8.0 19.0 0.00 0.00 0.00 59 1010.7
20260507232505 50 238 6.0 19.0 0.00 0.00 0.00 59 1010.6
20260507232003 50 257 5.0 10.0 0.00 0.00 0.00 64 1010.6
20260507231503 50 281 5.0 10.0 0.00 0.00 0.00 65 1010.5
20260507231004 50 304 4.0 10.0 0.00 0.00 0.00 65 1010.4
20260507230716 50 317 3.0 10.0 0.00 0.00 0.00 65 1010.4
20260507230003 51 323 2.0 8.0 0.00 0.00 0.00 64 1010.3
20260507225503 51 320 3.0 8.0 0.00 0.00 0.00 63 1010.3
20260507225003 51 316 4.0 8.0 0.00 0.00 0.00 63 1010.3
20260507224504 51 317 3.0 8.0 0.00 0.00 0.00 63 1010.2
20260507224003 51 322 3.0 5.0 0.00 0.00 0.00 62 1010.3
20260507223504 52 322 3.0 5.0 0.00 0.00 0.00 60 1010.3
20260507223003 52 317 4.0 12.0 0.00 0.00 0.00 60 1010.4
20260507222505 52 312 4.0 12.0 0.00 0.00 0.00 62 1010.4
20260507222214 52 313 4.0 13.0 0.00 0.00 0.00 63 1010.5
20260507221715 52 322 4.0 13.0 0.00 0.00 0.00 63 1010.5
20260507221004 52 322 5.0 13.0 0.00 0.00 0.00 62 1010.4
20260507220503 52 322 4.0 13.0 0.00 0.00 0.00 60 1010.4
20260507220003 52 318 4.0 10.0 0.00 0.00 0.00 63 1010.5
20260507215503 52 313 5.0 10.0 0.00 0.00 0.00 60 1010.5
20260507215005 52 320 4.0 10.0 0.00 0.00 0.00 60 1010.6
20260507214503 52 335 3.0 10.0 0.00 0.00 0.00 60 1010.6
20260507214003 52 334 4.0 10.0 0.00 0.00 0.00 60 1010.5
20260507213503 52 339 3.0 10.0 0.00 0.00 0.00 62 1010.5
20260507213003 51 351 2.0 10.0 0.00 0.00 0.00 64 1010.5
20260507212713 51 352 2.0 6.0 0.00 0.00 0.00 64 1010.5
20260507212214 50 352 2.0 8.0 0.00 0.00 0.00 63 1010.5
20260507211504 50 352 3.0 8.0 0.00 0.00 0.00 64 1010.5
20260507211003 50 355 3.0 6.0 0.00 0.00 0.00 64 1010.4
20260507210503 50 360 4.0 12.0 0.00 0.00 0.00 64 1010.5
20260507210003 50 353 5.0 12.0 0.00 0.00 0.00 64 1010.6
20260507205715 50 342 6.0 13.0 0.00 0.00 0.00 63 1010.5
20260507205003 50 331 6.0 13.0 0.00 0.00 0.00 64 1010.6
20260507204503 50 338 6.0 13.0 0.00 0.00 0.00 64 1010.6
20260507204005 50 332 7.0 15.0 0.00 0.00 0.00 65 1010.7
20260507203503 50 321 7.0 17.0 0.00 0.00 0.00 64 1010.6
20260507203003 50 317 8.0 17.0 0.00 0.00 0.00 65 1010.6
20260507202503 50 331 7.0 17.0 0.00 0.00 0.00 64 1010.6
20260507202003 50 338 7.0 15.0 0.00 0.00 0.00 63 1010.5
20260507201503 51 329 8.0 17.0 0.00 0.00 0.00 63 1010.7
20260507201003 51 329 7.0 17.0 0.00 0.00 0.00 60 1010.6
20260507200505 52 329 6.0 14.0 0.00 0.00 0.00 60 1010.6
20260507200003 52 319 5.0 13.0 0.00 0.00 0.00 57 1010.7
20260507195712 52 312 4.0 13.0 0.00 0.00 0.00 58 1010.8
20260507195005 52 309 4.0 10.0 0.00 0.00 0.00 60 1010.8
20260507194505 52 309 5.0 10.0 0.00 0.00 0.00 58 1010.9
20260507194003 52 320 5.0 13.0 0.00 0.00 0.00 58 1010.9
20260507193503 53 326 4.0 13.0 0.00 0.00 0.00 59 1010.9
20260507193213 52 316 3.0 10.0 0.00 0.00 0.00 64 1010.9
20260507192503 52 297 4.0 10.0 0.00 0.00 0.00 60 1011.0
20260507192215 52 299 5.0 13.0 0.00 0.00 0.00 60 1011.0
20260507191714 51 317 6.0 17.0 0.00 0.00 0.00 63 1011.0
20260507191003 50 319 7.0 17.0 0.00 0.00 0.00 64 1011.1
20260507190506 50 322 7.0 17.0 0.00 0.00 0.00 65 1011.2
20260507190005 49 319 8.0 19.0 0.00 0.00 0.00 64 1011.2
20260507185714 49 322 7.0 19.0 0.00 0.00 0.00 64 1011.2
20260507185003 49 328 9.0 18.0 0.00 0.00 0.00 65 1011.3
20260507184503 48 325 9.0 20.0 0.00 0.00 0.00 64 1011.3
20260507184003 48 336 9.0 23.0 0.00 0.00 0.00 65 1011.3
20260507183504 49 339 10.0 23.0 0.00 0.00 0.00 65 1011.3
20260507183003 49 339 10.0 18.0 0.00 0.00 0.00 65 1011.2
20260507182505 50 338 9.0 18.0 0.00 0.00 0.00 64 1011.2
20260507182215 50 339 8.0 18.0 0.00 0.00 0.00 64 1011.1
20260507181504 50 355 5.0 10.0 0.00 0.00 0.00 65 1011.2
20260507181003 50 345 5.0 10.0 0.00 0.00 0.00 64 1011.2
20260507180505 50 337 6.0 12.0 0.00 0.00 0.00 62 1011.2
20260507180003 50 338 6.0 12.0 0.00 0.00 0.00 60 1011.2
20260507175503 51 340 5.0 12.0 0.00 0.00 0.00 60 1011.2
20260507175003 51 342 6.0 15.0 0.00 0.00 0.00 62 1011.2
20260507174503 51 344 6.0 15.0 0.00 0.00 0.00 60 1011.2
20260507174003 52 350 5.0 15.0 0.00 0.00 0.00 58 1011.1
20260507173505 52 349 5.0 12.0 0.00 0.00 0.00 57 1011.1
20260507173212 52 345 5.0 12.0 0.00 0.00 0.00 56 1011.0
20260507172503 52 333 4.0 10.0 0.00 0.00 0.00 56 1011.2